EZY58YJ EHAM-EGAA

Flight info

Callsign EZY58YJ
Flight time 1h 18m
Altitude 38000
Route BERGI L602 NALAX L46 GETNO DCT REMSI DCT UVPOK M147 ROBOP M146 IPSET P6 BELZU
Aircraft A319/M-SDE2E3FGIJ1RWXYZ/LB1

Departure

Time 2026-05-05 18:53
Airport Amsterdam Airport Schiphol (EHAM)

Arrival

Time 2026-05-05 20:12
Airport Belfast International Airport (EGAA)
Time Latitude Longitude Altitude Speed Heading
2026-05-05 18:16 52.31155 4.75618 0 ft 0 kts 87°
2026-05-05 18:36 52.31155 4.75616 -1 ft 1 kts 87°
2026-05-05 18:36 52.31155 4.75592 -1 ft 2 kts 87°
2026-05-05 18:36 52.31154 4.75577 -1 ft 2 kts 86°
2026-05-05 18:37 52.31152 4.75552 -1 ft 2 kts 81°
2026-05-05 18:37 52.31149 4.75527 0 ft 2 kts 76°
2026-05-05 18:37 52.31145 4.75504 -1 ft 2 kts 71°
2026-05-05 18:37 52.31140 4.75481 -1 ft 2 kts 67°
2026-05-05 18:38 52.31134 4.75459 -1 ft 2 kts 63°
2026-05-05 18:38 52.31126 4.75439 0 ft 1 kts 58°
2026-05-05 18:38 52.31124 4.75432 0 ft 0 kts 57°
2026-05-05 18:38 52.31124 4.75433 0 ft 0 kts 57°
2026-05-05 18:41 52.31128 4.75437 0 ft 1 kts 26°
2026-05-05 18:41 52.31140 4.75439 -1 ft 2 kts 10°
2026-05-05 18:41 52.31180 4.75456 -1 ft 8 kts 10°
2026-05-05 18:42 52.31241 4.75458 -1 ft 9 kts 356°
2026-05-05 18:42 52.31311 4.75451 -1 ft 10 kts 356°
2026-05-05 18:42 52.31387 4.75443 -1 ft 11 kts 357°
2026-05-05 18:42 52.31472 4.75434 -1 ft 12 kts 348°
2026-05-05 18:43 52.31507 4.75327 -1 ft 12 kts 269°
2026-05-05 18:43 52.31502 4.75184 -1 ft 13 kts 270°
2026-05-05 18:43 52.31498 4.75022 -1 ft 15 kts 266°
2026-05-05 18:43 52.31491 4.74841 -1 ft 16 kts 268°
2026-05-05 18:44 52.31485 4.74654 0 ft 16 kts 267°
2026-05-05 18:44 52.31479 4.74463 0 ft 17 kts 266°
2026-05-05 18:44 52.31472 4.74265 -1 ft 17 kts 262°
2026-05-05 18:44 52.31392 4.74135 -1 ft 17 kts 188°
2026-05-05 18:45 52.31265 4.74122 -1 ft 19 kts 182°
2026-05-05 18:45 52.31127 4.74110 -1 ft 20 kts 182°
2026-05-05 18:45 52.30989 4.74098 -1 ft 20 kts 182°
2026-05-05 18:45 52.30850 4.74084 -1 ft 20 kts 185°
2026-05-05 18:46 52.30710 4.74071 -1 ft 19 kts 186°
2026-05-05 18:46 52.30570 4.74060 -1 ft 20 kts 184°
2026-05-05 18:46 52.30448 4.74050 -1 ft 15 kts 180°
2026-05-05 18:46 52.30344 4.74075 -1 ft 15 kts 156°
2026-05-05 18:47 52.30257 4.74140 -1 ft 12 kts 166°
2026-05-05 18:47 52.30197 4.74131 -1 ft 4 kts 200°
2026-05-05 18:47 52.30161 4.74106 -1 ft 6 kts 202°
2026-05-05 18:47 52.30110 4.74074 -1 ft 9 kts 202°
2026-05-05 18:48 52.30050 4.74034 -1 ft 6 kts 206°
2026-05-05 18:48 52.30050 4.74015 -1 ft 4 kts 23°
2026-05-05 18:48 52.30094 4.74060 -1 ft 11 kts 28°
2026-05-05 18:48 52.30170 4.74111 -1 ft 12 kts 21°
2026-05-05 18:49 52.30255 4.74136 -1 ft 12 kts 355°
2026-05-05 18:49 52.30312 4.74102 -1 ft 6 kts 326°
2026-05-05 18:49 52.30320 4.74051 -1 ft 5 kts 248°
2026-05-05 18:49 52.30289 4.73998 -1 ft 7 kts 217°
2026-05-05 18:50 52.30242 4.73939 -1 ft 9 kts 219°
2026-05-05 18:50 52.30225 4.73917 -1 ft 0 kts 218°
2026-05-05 18:51 52.30223 4.73914 -1 ft 2 kts 218°
2026-05-05 18:51 52.30194 4.73865 -1 ft 10 kts 241°
2026-05-05 18:52 52.30218 4.73746 -1 ft 12 kts 336°
2026-05-05 18:52 52.30253 4.73738 -1 ft 0 kts
2026-05-05 18:52 52.30257 4.73738 -1 ft 3 kts
2026-05-05 18:53 52.30536 4.73764 0 ft 79 kts
2026-05-05 18:53 52.31310 4.73841 0 ft 143 kts
2026-05-05 18:53 52.32384 4.73965 490 ft 156 kts
2026-05-05 18:53 52.33465 4.73924 1132 ft 168 kts 353°
2026-05-05 18:54 52.34619 4.73391 1797 ft 182 kts 346°
2026-05-05 18:54 52.35871 4.72645 2285 ft 204 kts 344°
2026-05-05 18:54 52.37253 4.71800 2880 ft 223 kts 344°
2026-05-05 18:54 52.38765 4.70883 3496 ft 241 kts 344°
2026-05-05 18:55 52.40395 4.69918 4223 ft 254 kts 343°
2026-05-05 18:55 52.42046 4.68973 5108 ft 259 kts 343°
2026-05-05 18:55 52.43765 4.68020 5855 ft 263 kts 343°
2026-05-05 18:55 52.45509 4.67081 6576 ft 267 kts 343°
2026-05-05 18:56 52.47281 4.66146 7298 ft 270 kts 343°
2026-05-05 18:56 52.49070 4.65216 8004 ft 274 kts 344°
2026-05-05 18:56 52.50873 4.64288 8712 ft 277 kts 343°
2026-05-05 18:56 52.52733 4.63341 9423 ft 281 kts 343°
2026-05-05 18:57 52.54616 4.62396 10131 ft 286 kts 344°
2026-05-05 18:57 52.56514 4.61455 10816 ft 294 kts 344°
2026-05-05 18:57 52.58502 4.60479 11448 ft 304 kts 344°
2026-05-05 18:57 52.60541 4.59491 12070 ft 312 kts 343°
2026-05-05 18:58 52.62637 4.58478 12609 ft 317 kts 341°
2026-05-05 18:58 52.64545 4.56684 12879 ft 316 kts 316°
2026-05-05 18:58 52.65986 4.53978 12910 ft 316 kts 308°
2026-05-05 18:58 52.67305 4.51108 12916 ft 316 kts 307°
2026-05-05 18:59 52.68647 4.48276 12914 ft 316 kts 309°
2026-05-05 18:59 52.70037 4.45481 12925 ft 316 kts 310°
2026-05-05 18:59 52.71451 4.42717 12920 ft 315 kts 310°
2026-05-05 18:59 52.72884 4.39952 12903 ft 315 kts 310°
2026-05-05 19:00 52.74278 4.37155 12925 ft 316 kts 306°
2026-05-05 19:00 52.75482 4.34172 12924 ft 315 kts 300°
2026-05-05 19:00 52.76560 4.31036 12919 ft 315 kts 298°
2026-05-05 19:00 52.77613 4.27881 12937 ft 316 kts 298°
2026-05-05 19:01 52.78680 4.24687 12929 ft 316 kts 298°
2026-05-05 19:01 52.79730 4.21558 12935 ft 316 kts 298°
2026-05-05 19:01 52.80805 4.18365 12927 ft 316 kts 298°
2026-05-05 19:01 52.81860 4.15235 12932 ft 316 kts 298°
2026-05-05 19:02 52.82935 4.12045 12932 ft 315 kts 298°
2026-05-05 19:02 52.84007 4.08863 12935 ft 315 kts 298°
2026-05-05 19:02 52.85057 4.05748 12936 ft 315 kts 298°
2026-05-05 19:02 52.86128 4.02564 12935 ft 314 kts 298°
2026-05-05 19:03 52.87186 3.99415 12933 ft 314 kts 298°
2026-05-05 19:03 52.88237 3.96284 12930 ft 315 kts 298°
2026-05-05 19:03 52.89299 3.93117 12934 ft 315 kts 298°
2026-05-05 19:03 52.90375 3.89906 13194 ft 322 kts 298°
2026-05-05 19:04 52.91456 3.86677 14016 ft 323 kts 298°
2026-05-05 19:04 52.92531 3.83460 14849 ft 323 kts 298°
2026-05-05 19:04 52.93625 3.80179 15553 ft 327 kts 298°
2026-05-05 19:04 52.94715 3.76903 16210 ft 332 kts 298°
2026-05-05 19:05 52.95827 3.73556 16860 ft 336 kts 298°
2026-05-05 19:05 52.96964 3.70135 17516 ft 340 kts 298°
2026-05-05 19:05 52.98109 3.66684 18157 ft 344 kts 298°
2026-05-05 19:05 52.99254 3.63232 18774 ft 348 kts 298°
2026-05-05 19:06 53.00417 3.59718 19399 ft 351 kts 298°
2026-05-05 19:06 53.01598 3.56147 20028 ft 354 kts 298°
2026-05-05 19:06 53.02770 3.52595 20641 ft 356 kts 298°
2026-05-05 19:06 53.03965 3.48964 21248 ft 359 kts 297°
2026-05-05 19:07 53.05165 3.45311 21837 ft 362 kts 297°
2026-05-05 19:07 53.06357 3.41680 22419 ft 365 kts 297°
2026-05-05 19:07 53.07573 3.37967 22979 ft 367 kts 297°
2026-05-05 19:07 53.08779 3.34234 23512 ft 370 kts 295°
2026-05-05 19:08 53.09821 3.30284 24042 ft 372 kts 289°
2026-05-05 19:08 53.10616 3.26185 24571 ft 374 kts 283°
2026-05-05 19:08 53.11226 3.21995 25082 ft 376 kts 281°
2026-05-05 19:08 53.11797 3.17739 25588 ft 379 kts 280°
2026-05-05 19:09 53.12359 3.13484 26082 ft 382 kts 280°
2026-05-05 19:09 53.12925 3.09176 26556 ft 385 kts 280°
2026-05-05 19:09 53.13496 3.04841 27033 ft 387 kts 279°
2026-05-05 19:09 53.14069 3.00472 27494 ft 389 kts 279°
2026-05-05 19:10 53.14647 2.96053 27916 ft 392 kts 279°
2026-05-05 19:10 53.15225 2.91624 28320 ft 395 kts 279°
2026-05-05 19:10 53.15812 2.87123 28753 ft 397 kts 279°
2026-05-05 19:10 53.16394 2.82634 29161 ft 399 kts 279°
2026-05-05 19:11 53.16978 2.78129 29542 ft 402 kts 279°
2026-05-05 19:11 53.17564 2.73591 29926 ft 404 kts 279°
2026-05-05 19:11 53.18148 2.69046 30274 ft 406 kts 278°
2026-05-05 19:11 53.18740 2.64424 30614 ft 409 kts 278°
2026-05-05 19:12 53.19336 2.59761 30980 ft 411 kts 278°
2026-05-05 19:12 53.19925 2.55117 31319 ft 413 kts 278°
2026-05-05 19:12 53.20514 2.50462 31624 ft 415 kts 278°
2026-05-05 19:12 53.21109 2.45771 31922 ft 417 kts 278°
2026-05-05 19:13 53.21706 2.41048 32231 ft 419 kts 279°
2026-05-05 19:13 53.22308 2.36269 32576 ft 419 kts 279°
2026-05-05 19:13 53.22898 2.31568 32991 ft 418 kts 278°
2026-05-05 19:13 53.23490 2.26817 33417 ft 416 kts 278°
2026-05-05 19:14 53.24072 2.22134 33806 ft 415 kts 278°
2026-05-05 19:14 53.24650 2.17461 34158 ft 415 kts 278°
2026-05-05 19:14 53.25237 2.12710 34496 ft 414 kts 278°
2026-05-05 19:14 53.25812 2.08031 34823 ft 414 kts 278°
2026-05-05 19:15 53.26384 2.03370 35111 ft 414 kts 278°
2026-05-05 19:15 53.26959 1.98656 35288 ft 414 kts 278°
2026-05-05 19:15 53.27525 1.94008 35452 ft 414 kts 278°
2026-05-05 19:15 53.28095 1.89307 35607 ft 414 kts 278°
2026-05-05 19:16 53.28664 1.84591 35767 ft 415 kts 278°
2026-05-05 19:16 53.29232 1.79868 35926 ft 415 kts 279°
2026-05-05 19:16 53.29794 1.75196 36083 ft 414 kts 279°
2026-05-05 19:16 53.30358 1.70485 36221 ft 415 kts 279°
2026-05-05 19:17 53.30923 1.65747 36354 ft 415 kts 279°
2026-05-05 19:17 53.31485 1.61008 36525 ft 416 kts 279°
2026-05-05 19:17 53.32040 1.56314 36678 ft 417 kts 279°
2026-05-05 19:17 53.32615 1.51530 36840 ft 419 kts 281°
2026-05-05 19:18 53.33278 1.46800 36997 ft 420 kts 282°
2026-05-05 19:18 53.33968 1.42072 37146 ft 421 kts 282°
2026-05-05 19:18 53.34661 1.37331 37297 ft 422 kts 282°
2026-05-05 19:18 53.35355 1.32559 37450 ft 423 kts 281°
2026-05-05 19:19 53.36038 1.27837 37603 ft 424 kts 281°
2026-05-05 19:19 53.36734 1.23003 37741 ft 425 kts 281°
2026-05-05 19:19 53.37418 1.18238 37882 ft 425 kts 281°
2026-05-05 19:19 53.38103 1.13449 37936 ft 427 kts 281°
2026-05-05 19:20 53.39478 1.03799 37951 ft 427 kts 282°
2026-05-05 19:20 53.40842 0.94175 37957 ft 427 kts 281°
2026-05-05 19:21 53.42202 0.84511 37962 ft 427 kts 282°
2026-05-05 19:21 53.43547 0.74893 37962 ft 427 kts 282°
2026-05-05 19:22 53.44891 0.65210 37966 ft 427 kts 282°
2026-05-05 19:22 53.46218 0.55590 37965 ft 427 kts 282°
2026-05-05 19:23 53.47546 0.45906 37972 ft 427 kts 282°
2026-05-05 19:23 53.48860 0.36255 37971 ft 427 kts 282°
2026-05-05 19:24 53.50174 0.26532 37980 ft 426 kts 281°
2026-05-05 19:24 53.51474 0.16833 37975 ft 426 kts 281°
2026-05-05 19:25 53.52762 0.07174 37980 ft 426 kts 281°
2026-05-05 19:25 53.54051 -0.02548 37980 ft 426 kts 281°
2026-05-05 19:26 53.55329 -0.12251 37985 ft 426 kts 281°
2026-05-05 19:26 53.56605 -0.21991 37983 ft 426 kts 281°
2026-05-05 19:27 53.57866 -0.31704 37993 ft 426 kts 281°
2026-05-05 19:27 53.59115 -0.41390 38005 ft 426 kts 281°
2026-05-05 19:28 53.60357 -0.51075 38000 ft 426 kts 281°
2026-05-05 19:28 53.61592 -0.60785 38001 ft 426 kts 281°
2026-05-05 19:29 53.62823 -0.70526 37996 ft 426 kts 281°
2026-05-05 19:29 53.64044 -0.80275 38001 ft 426 kts 281°
2026-05-05 19:30 53.65253 -0.89984 37997 ft 426 kts 281°
2026-05-05 19:30 53.66434 -0.99550 37997 ft 426 kts 281°
2026-05-05 19:31 53.67639 -1.09357 38001 ft 425 kts 281°
2026-05-05 19:31 53.68826 -1.19083 38002 ft 425 kts 281°
2026-05-05 19:32 53.70011 -1.28859 38006 ft 426 kts 281°
2026-05-05 19:32 53.71183 -1.38610 38010 ft 426 kts 281°
2026-05-05 19:33 53.72351 -1.48401 38013 ft 425 kts 281°
2026-05-05 19:33 53.73503 -1.58129 38020 ft 425 kts 281°
2026-05-05 19:34 53.74586 -1.67904 38020 ft 425 kts 279°
2026-05-05 19:35 53.76145 -1.82381 38022 ft 424 kts 279°
2026-05-05 19:35 53.77193 -1.92156 38024 ft 424 kts 279°
2026-05-05 19:36 53.78236 -2.01949 38019 ft 424 kts 279°
2026-05-05 19:36 53.79277 -2.11783 38018 ft 424 kts 279°
2026-05-05 19:37 53.80307 -2.21588 38012 ft 423 kts 279°
2026-05-05 19:37 53.81321 -2.31331 38010 ft 424 kts 279°
2026-05-05 19:38 53.82334 -2.41134 38012 ft 423 kts 279°
2026-05-05 19:38 53.83341 -2.50960 38012 ft 423 kts 279°
2026-05-05 19:39 53.84335 -2.60752 38014 ft 423 kts 279°
2026-05-05 19:39 53.85317 -2.70519 38020 ft 423 kts 278°
2026-05-05 19:40 53.86297 -2.80348 38023 ft 423 kts 278°
2026-05-05 19:40 53.87267 -2.90148 38025 ft 423 kts 278°
2026-05-05 19:41 53.88231 -2.99968 38023 ft 423 kts 278°
2026-05-05 19:41 53.89186 -3.09785 37981 ft 423 kts 278°
2026-05-05 19:41 53.89664 -3.14726 37360 ft 426 kts 278°
2026-05-05 19:42 53.90141 -3.19683 36753 ft 426 kts 278°
2026-05-05 19:42 53.90617 -3.24640 36210 ft 426 kts 278°
2026-05-05 19:42 53.91089 -3.29585 35778 ft 427 kts 278°
2026-05-05 19:42 53.91558 -3.34505 35272 ft 428 kts 278°
2026-05-05 19:43 53.92035 -3.39544 34680 ft 429 kts 278°
2026-05-05 19:43 53.92498 -3.44471 34040 ft 428 kts 278°
2026-05-05 19:43 53.92968 -3.49488 33456 ft 426 kts 278°
2026-05-05 19:43 53.93428 -3.54429 32906 ft 422 kts 278°
2026-05-05 19:44 53.93876 -3.59272 32369 ft 419 kts 279°
2026-05-05 19:44 53.94327 -3.64169 31848 ft 414 kts 279°
2026-05-05 19:44 53.94763 -3.68911 31536 ft 407 kts 278°
2026-05-05 19:44 53.95193 -3.73620 31218 ft 404 kts 278°
2026-05-05 19:45 53.95617 -3.78294 30859 ft 401 kts 278°
2026-05-05 19:45 53.96041 -3.82975 30445 ft 399 kts 278°
2026-05-05 19:45 53.96453 -3.87538 30034 ft 396 kts 278°
2026-05-05 19:45 53.96865 -3.92127 29620 ft 393 kts 278°
2026-05-05 19:46 53.97274 -3.96688 29196 ft 390 kts 278°
2026-05-05 19:46 53.97677 -4.01202 28788 ft 387 kts 278°
2026-05-05 19:46 53.98075 -4.05693 28375 ft 384 kts 278°
2026-05-05 19:46 53.98465 -4.10121 27965 ft 381 kts 278°
2026-05-05 19:47 53.98851 -4.14522 27564 ft 378 kts 278°
2026-05-05 19:47 53.99401 -4.18818 27160 ft 375 kts 287°
2026-05-05 19:47 54.00378 -4.22925 26758 ft 372 kts 296°
2026-05-05 19:47 54.01698 -4.26619 26365 ft 370 kts 303°
2026-05-05 19:48 54.03175 -4.30201 25965 ft 367 kts 304°
2026-05-05 19:48 54.04638 -4.33687 25562 ft 365 kts 304°
2026-05-05 19:48 54.06091 -4.37167 25161 ft 362 kts 304°
2026-05-05 19:48 54.07550 -4.40684 24756 ft 360 kts 304°
2026-05-05 19:49 54.08968 -4.44114 24362 ft 357 kts 304°
2026-05-05 19:49 54.09913 -4.46406 24100 ft 355 kts 304°
2026-05-05 19:49 54.11807 -4.50977 23568 ft 352 kts 304°
2026-05-05 19:49 54.13128 -4.54166 23205 ft 349 kts 304°
2026-05-05 19:50 54.14514 -4.57533 22828 ft 347 kts 304°
2026-05-05 19:50 54.15885 -4.60876 22459 ft 344 kts 304°
2026-05-05 19:50 54.17251 -4.64211 22094 ft 341 kts 304°
2026-05-05 19:50 54.18619 -4.67551 21727 ft 339 kts 303°
2026-05-05 19:51 54.19917 -4.70732 21377 ft 337 kts 303°
2026-05-05 19:51 54.21282 -4.74083 21000 ft 334 kts 304°
2026-05-05 19:51 54.22595 -4.77309 20631 ft 332 kts 304°
2026-05-05 19:51 54.23913 -4.80547 20258 ft 330 kts 304°
2026-05-05 19:52 54.25207 -4.83730 19868 ft 328 kts 304°
2026-05-05 19:52 54.26502 -4.86919 19515 ft 325 kts 304°
2026-05-05 19:52 54.27795 -4.90107 19150 ft 323 kts 304°
2026-05-05 19:52 54.29067 -4.93248 18790 ft 321 kts 304°
2026-05-05 19:53 54.30337 -4.96387 18421 ft 319 kts 304°
2026-05-05 19:53 54.31590 -4.99490 18046 ft 317 kts 304°
2026-05-05 19:53 54.32829 -5.02559 17695 ft 315 kts 304°
2026-05-05 19:53 54.34080 -5.05663 17338 ft 314 kts 304°
2026-05-05 19:54 54.35296 -5.08685 16979 ft 312 kts 304°
2026-05-05 19:54 54.36534 -5.11765 16620 ft 310 kts 304°
2026-05-05 19:54 54.37747 -5.14786 16258 ft 309 kts 304°
2026-05-05 19:54 54.38965 -5.17821 15903 ft 307 kts 304°
2026-05-05 19:55 54.40167 -5.20822 15542 ft 306 kts 304°
2026-05-05 19:55 54.41356 -5.23797 15189 ft 304 kts 304°
2026-05-05 19:55 54.42540 -5.26758 14829 ft 303 kts 304°
2026-05-05 19:55 54.43733 -5.29747 14476 ft 302 kts 304°
2026-05-05 19:56 54.44952 -5.32625 14123 ft 300 kts 308°
2026-05-05 19:56 54.46291 -5.35363 13770 ft 299 kts 312°
2026-05-05 19:56 54.47703 -5.37938 13429 ft 297 kts 314°
2026-05-05 19:56 54.49134 -5.40497 13082 ft 295 kts 314°
2026-05-05 19:57 54.50551 -5.43054 12723 ft 294 kts 311°
2026-05-05 19:57 54.51366 -5.44898 12485 ft 293 kts 303°
2026-05-05 19:57 54.52546 -5.49083 11997 ft 291 kts 291°
2026-05-05 19:57 54.53184 -5.52386 11630 ft 290 kts 289°
2026-05-05 19:58 54.53792 -5.55682 11266 ft 289 kts 289°
2026-05-05 19:58 54.54395 -5.58963 10895 ft 287 kts 289°
2026-05-05 19:58 54.54996 -5.62229 10524 ft 286 kts 289°
2026-05-05 19:58 54.55592 -5.65458 10296 ft 292 kts 289°
2026-05-05 19:59 54.56206 -5.68786 10222 ft 283 kts 289°
2026-05-05 19:59 54.56764 -5.71830 9933 ft 278 kts 289°
2026-05-05 19:59 54.57293 -5.74707 9611 ft 276 kts 289°
2026-05-05 19:59 54.57890 -5.77952 9243 ft 273 kts 289°
2026-05-05 20:00 54.58459 -5.81040 8911 ft 270 kts 289°
2026-05-05 20:00 54.59021 -5.84099 8612 ft 267 kts 289°
2026-05-05 20:00 54.59574 -5.87115 8313 ft 264 kts 289°
2026-05-05 20:00 54.60117 -5.90078 8094 ft 258 kts 289°
2026-05-05 20:01 54.60607 -5.93041 7884 ft 252 kts 279°
2026-05-05 20:01 54.60420 -5.95958 7721 ft 247 kts 253°
2026-05-05 20:01 54.59826 -5.98683 7590 ft 239 kts 250°
2026-05-05 20:01 54.59208 -6.01317 7460 ft 234 kts 250°
2026-05-05 20:02 54.58625 -6.03910 7335 ft 233 kts 251°
2026-05-05 20:02 54.58070 -6.06511 7213 ft 233 kts 252°
2026-05-05 20:02 54.57526 -6.09151 7091 ft 232 kts 252°
2026-05-05 20:02 54.56998 -6.11759 6970 ft 231 kts 253°
2026-05-05 20:03 54.56473 -6.14378 6845 ft 231 kts 253°
2026-05-05 20:03 54.55957 -6.16964 6676 ft 231 kts 253°
2026-05-05 20:03 54.55437 -6.19584 6442 ft 230 kts 253°
2026-05-05 20:03 54.54917 -6.22194 6228 ft 229 kts 253°
2026-05-05 20:04 54.54408 -6.24747 6012 ft 228 kts 253°
2026-05-05 20:04 54.53898 -6.27321 5763 ft 227 kts 253°
2026-05-05 20:04 54.53380 -6.29909 5525 ft 226 kts 253°
2026-05-05 20:04 54.52873 -6.32437 5295 ft 225 kts 253°
2026-05-05 20:05 54.52369 -6.34949 5049 ft 218 kts 253°
2026-05-05 20:05 54.51876 -6.37409 4843 ft 215 kts 254°
2026-05-05 20:05 54.51396 -6.39806 4634 ft 214 kts 255°
2026-05-05 20:05 54.51200 -6.42305 4349 ft 208 kts 285°
2026-05-05 20:06 54.51826 -6.44413 4126 ft 198 kts 319°
2026-05-05 20:06 54.52988 -6.45655 3967 ft 202 kts 338°
2026-05-05 20:06 54.54279 -6.46651 3720 ft 201 kts 338°
2026-05-05 20:06 54.55552 -6.47639 3499 ft 198 kts 338°
2026-05-05 20:07 54.56737 -6.48569 3518 ft 175 kts 340°
2026-05-05 20:07 54.57843 -6.48767 3403 ft 154 kts 17°
2026-05-05 20:07 54.58670 -6.47768 3248 ft 141 kts 51°
2026-05-05 20:07 54.59110 -6.46330 3164 ft 134 kts 61°
2026-05-05 20:08 54.59494 -6.44878 3058 ft 133 kts 61°
2026-05-05 20:08 54.59880 -6.43422 2769 ft 132 kts 61°
2026-05-05 20:08 54.60262 -6.41996 2509 ft 131 kts 60°
2026-05-05 20:08 54.60640 -6.40591 2331 ft 131 kts 60°
2026-05-05 20:09 54.61024 -6.39167 2153 ft 130 kts 60°
2026-05-05 20:09 54.61406 -6.37755 1977 ft 130 kts 59°
2026-05-05 20:09 54.61789 -6.36331 1800 ft 129 kts 59°
2026-05-05 20:09 54.62168 -6.34943 1634 ft 129 kts 59°
2026-05-05 20:10 54.62549 -6.33537 1455 ft 129 kts 59°
2026-05-05 20:10 54.62931 -6.32131 1287 ft 129 kts 59°
2026-05-05 20:10 54.63310 -6.30729 1112 ft 129 kts 59°
2026-05-05 20:10 54.63685 -6.29345 953 ft 128 kts 60°
2026-05-05 20:11 54.64064 -6.27941 780 ft 128 kts 61°
2026-05-05 20:11 54.64436 -6.26570 648 ft 125 kts 62°
2026-05-05 20:11 54.64803 -6.25122 477 ft 133 kts 62°
2026-05-05 20:11 54.65181 -6.23695 273 ft 132 kts 61°
2026-05-05 20:12 54.65540 -6.22356 231 ft 105 kts 62°
2026-05-05 20:12 54.65774 -6.21490 244 ft 52 kts 64°
2026-05-05 20:12 54.65900 -6.21346 245 ft 12 kts 336°
2026-05-05 20:12 54.65933 -6.21375 244 ft 0 kts 332°
2026-05-05 20:13 54.65940 -6.21381 244 ft 2 kts 333°
2026-05-05 20:13 54.65952 -6.21389 243 ft 0 kts 343°
2026-05-05 20:13 54.65963 -6.21395 243 ft 2 kts 345°
2026-05-05 20:13 54.65975 -6.21413 243 ft 2 kts 279°
2026-05-05 20:14 54.65970 -6.21450 242 ft 4 kts 251°
2026-05-05 20:14 54.65953 -6.21506 241 ft 6 kts 248°
2026-05-05 20:14 54.65937 -6.21576 240 ft 6 kts 241°
2026-05-05 20:14 54.65915 -6.21641 239 ft 6 kts 239°
2026-05-05 20:15 54.65892 -6.21701 238 ft 5 kts 236°
2026-05-05 20:15 54.65879 -6.21763 237 ft 6 kts 256°
2026-05-05 20:15 54.65863 -6.21837 236 ft 7 kts 248°
2026-05-05 20:15 54.65841 -6.21920 234 ft 7 kts 248°
2026-05-05 20:16 54.65857 -6.22007 233 ft 9 kts 325°
2026-05-05 20:16 54.65920 -6.22060 231 ft 8 kts 336°
2026-05-05 20:16 54.65957 -6.22047 230 ft 5 kts 70°
2026-05-05 20:16 54.65972 -6.21996 231 ft 4 kts 64°
2026-05-05 20:17 54.65983 -6.21953 232 ft 2 kts 64°
2026-05-05 20:17 54.65987 -6.21941 232 ft 0 kts 65°